Weather History for Oscoda, MI

Change the Weather History Date:

Wednesday, December 4, 2013

  Actual Average Record
Temperature  
Mean Temperature 38 °F -  
Max Temperature 45 °F 37 °F 58 °F (2012)
Min Temperature 33 °F 23 °F 3 °F (2002)
Degree Days  
Heating Degree Days 26    
Moisture  
Dew Point 38 °F    
Average Humidity 97    
Maximum Humidity 99    
Minimum Humidity 93    
Precipitation  
Precipitation 0.48 in - - ()
Sea Level Pressure  
Sea Level Pressure 29.80 in    
Wind  
Wind Speed 7 mph (ESE)    
Max Wind Speed 15 mph    
Max Gust Speed 24 mph    
Visibility 2 miles    
Events Fog , Rain , Snow    
Averages and records for this station are not official NWS values.
T = Trace of Precipitation, MM = Missing Value Source: NWS Daily Summary

Daily Weather History Graph

Daily Weather History Graph

Search for Another Location

Airport:

Trip Planner

Search our weather history database for the weather conditions in past years. The results will help you decide how hot, cold, wet, or windy it might be!

Date:

Astronomy

Dec. 04, 2013 Rise Set
Actual Time 7:53 AM EST 4:54 PM EST
Civil Twilight 7:20 AM EST 5:27 PM EST
Nautical Twilight 6:43 AM EST 6:03 PM EST
Astronomical Twilight 6:08 AM EST 6:38 PM EST
Moon 9:18 AM EST (12/4) 7:05 PM EST (12/4)
Length of Visible Light 10h 06m
Length of Day
9h 01m
Waxing Crescent, 4% of the Moon is Illuminated
Dec 4
Waxing Crescent
Dec 9
First Quarter
Dec 17
Full
Dec 25
Last Quarter
Jan 1
New

Hourly Weather History & Observations

Time (EST) Temp. Windchill Dew Point Humidity Pressure Visibility Wind Dir Wind Speed Gust Speed Precip Events Conditions
12:14 AM 33.8 °F 27.0 °F 33.1 °F 97% 29.91 in 1.0 mi East 8.1 mph - 0.02 in Snow Light Snow
12:34 AM 33.6 °F 26.2 °F 32.9 °F 97% 29.90 in 1.2 mi East 9.2 mph - 0.04 in Snow Light Snow
12:53 AM 33.6 °F 26.2 °F 33.1 °F 98% 29.90 in 1.8 mi East 9.2 mph - 0.05 in Snow Light Snow
1:14 AM 33.8 °F 27.0 °F 33.1 °F 97% 29.90 in 2.5 mi East 8.1 mph - 0.01 in Snow Light Snow
1:34 AM 33.8 °F 27.0 °F 33.3 °F 98% 29.89 in 4.0 mi East 8.1 mph - 0.02 in Snow Light Snow
1:53 AM 33.8 °F 27.0 °F 33.4 °F 99% 29.90 in 7.0 mi East 8.1 mph - 0.03 in   Overcast
2:14 AM 34.2 °F 28.2 °F 33.8 °F 99% 29.90 in 5.0 mi ENE 6.9 mph - 0.01 in Snow Light Snow
2:34 AM 34.5 °F 27.9 °F 33.8 °F 97% 29.89 in 7.0 mi East 8.1 mph - 0.03 in Snow Light Snow
2:53 AM 35.1 °F 30.1 °F 34.3 °F 97% 29.89 in 5.0 mi East 5.8 mph - 0.03 in Snow Light Snow
3:14 AM 35.6 °F 30.7 °F 34.7 °F 97% 29.90 in 5.0 mi East 5.8 mph - N/A   Overcast
3:34 AM 36.1 °F 30.6 °F 34.5 °F 94% 29.90 in 5.0 mi East 6.9 mph - 0.01 in   Overcast
3:54 AM 36.3 °F 30.8 °F 34.9 °F 95% 29.90 in 4.0 mi ESE 6.9 mph - 0.01 in   Drizzle
4:14 AM 36.0 °F 30.3 °F 34.9 °F 96% 29.88 in 3.0 mi East 6.9 mph - N/A Rain Light Rain
4:34 AM 36.0 °F 30.3 °F 35.1 °F 97% 29.88 in 3.0 mi East 6.9 mph - N/A   Overcast
4:54 AM 36.0 °F 31.1 °F 35.1 °F 97% 29.88 in 2.5 mi East 5.8 mph - N/A   Overcast
5:14 AM 36.0 °F 32.1 °F 35.2 °F 97% 29.89 in 2.5 mi East 4.6 mph - N/A   Overcast
5:34 AM 35.2 °F 30.3 °F 34.7 °F 98% 29.89 in 2.0 mi ENE 5.8 mph - N/A   Overcast
5:54 AM 35.2 °F 32.4 °F 34.7 °F 98% 29.90 in 1.5 mi ENE 3.5 mph - N/A   Overcast
6:14 AM 35.1 °F 30.1 °F 34.7 °F 99% 29.89 in 1.0 mi ENE 5.8 mph - N/A Rain Light Rain
6:34 AM 35.6 °F 29.2 °F 35.2 °F 99% 29.88 in 1.0 mi ENE 8.1 mph - N/A   Overcast
6:54 AM 35.8 °F 30.1 °F 35.6 °F 99% 29.89 in 1.0 mi ENE 6.9 mph - N/A   Overcast
7:14 AM 36.3 °F 28.4 °F 36.0 °F 99% 29.89 in 1.0 mi NE 11.5 mph - N/A   Overcast
7:34 AM 36.5 °F 31.8 °F 36.0 °F 98% 29.90 in 1.0 mi ENE 5.8 mph - N/A Rain Rain
7:54 AM 36.1 °F 30.6 °F 35.8 °F 99% 29.90 in 0.8 mi ENE 6.9 mph - 0.01 in Rain Light Rain
8:14 AM 36.7 °F - 36.5 °F 99% 29.91 in 0.8 mi Calm Calm - N/A   Overcast
8:34 AM 36.5 °F 31.8 °F 36.1 °F 99% 29.90 in 0.5 mi ENE 5.8 mph - N/A Fog Fog
8:54 AM 36.9 °F 31.4 °F 36.5 °F 99% 29.89 in 0.5 mi East 6.9 mph - N/A Fog Fog
9:14 AM 37.0 °F 32.4 °F 36.7 °F 99% 29.89 in 0.2 mi East 5.8 mph - N/A Fog Fog
9:34 AM 37.0 °F 32.4 °F 36.7 °F 99% 29.89 in 0.2 mi ENE 5.8 mph - N/A Fog Fog
9:54 AM 37.6 °F 35.1 °F 37.2 °F 99% 29.90 in 0.2 mi East 3.5 mph - N/A Fog Fog
10:14 AM 37.4 °F 34.9 °F 37.0 °F 99% 29.91 in 0.2 mi East 3.5 mph - N/A Fog Fog
10:34 AM 37.4 °F - 36.9 °F 98% 29.91 in 0.2 mi Calm Calm - N/A Fog Fog
10:54 AM 38.3 °F 34.8 °F 37.9 °F 99% 29.90 in 0.5 mi East 4.6 mph - N/A Fog Fog
11:14 AM 38.3 °F 35.9 °F 37.8 °F 98% 29.89 in 0.8 mi East 3.5 mph - N/A   Overcast
11:34 AM 38.5 °F 35.0 °F 38.1 °F 99% 29.88 in 1.2 mi ESE 4.6 mph - N/A   Overcast
11:54 AM 38.8 °F - 38.5 °F 99% 29.88 in 0.8 mi Calm Calm - N/A   Overcast
12:14 PM 38.8 °F 35.4 °F 38.5 °F 99% 29.86 in 0.2 mi East 4.6 mph - N/A Fog Fog
12:34 PM 39.2 °F 34.2 °F 38.8 °F 99% 29.84 in 0.2 mi ESE 6.9 mph - N/A Fog Fog
12:54 PM 39.6 °F 35.4 °F 39.2 °F 99% 29.83 in 0.2 mi ESE 5.8 mph - N/A Fog Fog
1:14 PM 40.1 °F 35.3 °F 39.6 °F 98% 29.83 in 1.0 mi ESE 6.9 mph - N/A   Overcast
1:33 PM 39.9 °F 35.1 °F 39.6 °F 99% 29.82 in 0.5 mi ESE 6.9 mph - N/A Fog Fog
1:54 PM 39.7 °F 36.5 °F 39.4 °F 99% 29.81 in 1.0 mi East 4.6 mph - N/A   Overcast
2:14 PM 39.9 °F 36.7 °F 39.6 °F 99% 29.81 in 1.2 mi East 4.6 mph - N/A   Overcast
2:33 PM 40.3 °F 37.1 °F 39.9 °F 99% 29.81 in 1.2 mi East 4.6 mph - N/A   Overcast
2:54 PM 40.1 °F 36.1 °F 39.4 °F 97% 29.80 in 1.2 mi East 5.8 mph - N/A   Overcast
3:14 PM 39.0 °F 34.8 °F 38.5 °F 98% 29.80 in 1.0 mi East 5.8 mph - N/A   Overcast
3:33 PM 40.6 °F 36.7 °F 40.1 °F 98% 29.81 in 1.8 mi East 5.8 mph - N/A   Overcast
3:54 PM 40.3 °F 36.3 °F 39.6 °F 97% 29.80 in 1.5 mi East 5.8 mph - N/A   Overcast
4:14 PM 39.6 °F 36.3 °F 38.8 °F 97% 29.79 in 1.0 mi East 4.6 mph - N/A   Overcast
4:33 PM 39.7 °F 34.9 °F 38.8 °F 97% 29.77 in 1.2 mi East 6.9 mph - N/A   Overcast
4:54 PM 41.0 °F 35.8 °F 40.1 °F 97% 29.76 in 1.8 mi ESE 8.1 mph - N/A   Overcast
5:14 PM 41.0 °F 35.8 °F 40.1 °F 97% 29.75 in 3.0 mi ESE 8.1 mph - N/A   Overcast
5:33 PM 41.4 °F 34.7 °F 40.1 °F 95% 29.74 in 3.0 mi ESE 11.5 mph 17.3 mph N/A   Overcast
5:54 PM 41.4 °F 34.7 °F 39.9 °F 95% 29.73 in 3.0 mi ESE 11.5 mph 16.1 mph N/A   Overcast
6:14 PM 41.9 °F 36.3 °F 40.1 °F 93% 29.72 in 4.0 mi ESE 9.2 mph - N/A   Overcast
6:33 PM 42.1 °F 35.2 °F 40.3 °F 93% 29.70 in 4.0 mi ESE 12.7 mph 17.3 mph N/A   Overcast
6:54 PM 42.4 °F 36.5 °F 40.5 °F 93% 29.70 in 4.0 mi SE 10.4 mph 19.6 mph N/A   Overcast
7:13 PM 42.8 °F 36.2 °F 41.0 °F 93% 29.68 in 4.0 mi ESE 12.7 mph 18.4 mph N/A   Overcast
7:34 PM 42.8 °F 35.8 °F 41.0 °F 93% 29.66 in 4.0 mi ESE 13.8 mph 23.0 mph N/A   Overcast
7:54 PM 42.4 °F 35.0 °F 41.0 °F 95% 29.67 in 1.8 mi ESE 15.0 mph 24.2 mph 0.06 in Rain Light Rain
8:13 PM 42.3 °F 35.9 °F 41.0 °F 95% 29.65 in 2.0 mi ESE 11.5 mph 18.4 mph 0.06 in Rain Heavy Rain
8:34 PM 42.3 °F 38.6 °F 41.2 °F 96% 29.66 in 2.0 mi SSE 5.8 mph - 0.14 in Rain Rain
8:54 PM 42.8 °F 37.5 °F 41.9 °F 97% 29.64 in 1.8 mi ESE 9.2 mph 16.1 mph 0.28 in Rain Light Rain
9:13 PM 42.4 °F 38.8 °F 41.4 °F 96% 29.62 in 3.0 mi SE 5.8 mph 9.2 mph N/A Rain Light Rain
9:34 PM 42.8 °F 37.0 °F 41.7 °F 96% 29.61 in 3.0 mi SE 10.4 mph 16.1 mph N/A   Overcast
9:54 PM 42.8 °F 37.5 °F 41.7 °F 96% 29.59 in 3.0 mi SSE 9.2 mph - 0.01 in   Overcast
10:13 PM 43.5 °F 36.7 °F 42.4 °F 96% 29.59 in 3.0 mi SSE 13.8 mph 21.9 mph N/A   Overcast
10:34 PM 43.9 °F 37.9 °F 42.6 °F 95% 29.57 in 4.0 mi SSE 11.5 mph 16.1 mph N/A   Overcast
10:54 PM 44.2 °F 37.6 °F 43.0 °F 95% 29.55 in 4.0 mi SSE 13.8 mph 18.4 mph N/A   Overcast
11:13 PM 44.6 °F 38.8 °F 43.2 °F 95% 29.55 in 4.0 mi SSE 11.5 mph 19.6 mph N/A   Overcast
11:34 PM 44.4 °F 41.2 °F 43.0 °F 95% 29.54 in 3.0 mi South 5.8 mph 16.1 mph N/A Rain Light Rain
11:54 PM 45.1 °F 41.4 °F 44.1 °F 96% 29.53 in 3.0 mi South 6.9 mph - N/A Rain Light Rain